Bakersfield, CA

11:09 PM PST on January 22, 2018 (GMT -0800)
Meadows

Weather History for KBFL - March, 2014

Change the Weather History Date:

Sunday, March 2, 2014

  Actual Average Record
Temperature  
Mean Temperature 56 °F 56 °F  
Max Temperature 65 °F 67 °F 87 °F (1926)
Min Temperature 47 °F 45 °F 28 °F (1907)
Degree Days  
Heating Degree Days 9    
Month to date heating degree days 16  
Since 1 July heating degree days 1344  
Cooling Degree Days 0    
Month to date cooling degree days 0  
Year to date cooling degree days 9  
Growing Degree Days 5 (Base 50)    
Moisture  
Dew Point 44 °F    
Average Humidity 65    
Maximum Humidity 83    
Minimum Humidity 46    
Precipitation  
Precipitation 0.00 in 0.05 in 1.30 in (1938)
Month to date precipitation 0.04 0.09  
Year to date precipitation 0.48 2.49  
Since 1 July precipitation 1.55  
Snow  
Snow 0.00 in - - ()
Month to date snowfall 0.0  
Since 1 July snowfall 0.0  
Snow Depth 0.00 in    
Sea Level Pressure  
Sea Level Pressure 30.05 in    
Wind  
Wind Speed 7 mph (NE)    
Max Wind Speed 13 mph    
Max Gust Speed 15 mph    
Visibility 10 miles    
Events      
T = Trace of Precipitation, MM = Missing Value Source: NWS Daily Summary

Daily Weather History Graph

Daily Weather History Graph

Search for Another Location

Airport or City:

Trip Planner

Search our weather history database for the weather conditions in past years. The results will help you decide how hot, cold, wet, or windy it might be!

Date:

Astronomy

Mar. 02, 2014 Rise Set
Actual Time 6:24 AM PST 5:52 PM PST
Civil Twilight 5:59 AM PST 6:18 PM PST
Nautical Twilight 5:29 AM PST 6:47 PM PST
Astronomical Twilight 5:00 AM PST 7:17 PM PST
Moon 7:03 AM PST (3/2) 7:48 PM PST (3/2)
Length of Visible Light 12h 19m
Length of Day
11h 28m
Waxing Crescent, 3% of the Moon is Illuminated
Mar 2
Waxing Crescent
Mar 8
First Quarter
Mar 16
Full
Mar 23
Last Quarter
Mar 30
New

Hourly Weather History & Observations

Time (PST) Temp. Dew Point Humidity Pressure Visibility Wind Dir Wind Speed Gust Speed Precip Events Conditions
12:54 AM 51.1 °F 43.0 °F 74% 29.91 in 10.0 mi ESE 5.8 mph - N/A   Clear
1:54 AM 54.0 °F 42.1 °F 64% 29.91 in 10.0 mi East 6.9 mph - N/A   Mostly Cloudy
2:54 AM 52.0 °F 42.1 °F 69% 29.93 in 10.0 mi ESE 6.9 mph - N/A   Clear
3:54 AM 53.1 °F 41.0 °F 64% 29.92 in 10.0 mi East 8.1 mph - N/A   Clear
4:54 AM 50.0 °F 41.0 °F 71% 29.94 in 10.0 mi ESE 3.5 mph - N/A   Clear
5:54 AM 48.0 °F 41.0 °F 77% 29.95 in 10.0 mi Calm Calm - N/A   Scattered Clouds
6:54 AM 48.9 °F 43.0 °F 80% 30.00 in 10.0 mi NNE 4.6 mph - N/A   Mostly Cloudy
7:54 AM 55.0 °F 41.0 °F 59% 30.02 in 10.0 mi East 9.2 mph - N/A   Overcast
8:54 AM 57.9 °F 43.0 °F 58% 30.04 in 10.0 mi ESE 9.2 mph - N/A   Overcast
9:54 AM 61.0 °F 42.1 °F 50% 30.06 in 10.0 mi SE 3.5 mph - N/A   Overcast
10:54 AM 62.1 °F 42.1 °F 48% 30.08 in 10.0 mi Calm Calm - N/A   Overcast
11:54 AM 63.0 °F 41.0 °F 45% 30.07 in 10.0 mi Calm Calm - N/A   Overcast
12:54 PM 64.0 °F 44.1 °F 48% 30.06 in 10.0 mi WNW 6.9 mph - N/A   Overcast
1:54 PM 63.0 °F 45.0 °F 52% 30.07 in 10.0 mi WNW 10.4 mph - N/A   Overcast
2:54 PM 62.1 °F 48.9 °F 62% 30.08 in 10.0 mi NNW 10.4 mph - N/A   Partly Cloudy
3:54 PM 63.0 °F 46.9 °F 56% 30.09 in 10.0 mi NW 11.5 mph - N/A   Mostly Cloudy
4:54 PM 62.1 °F 45.0 °F 53% 30.09 in 10.0 mi North 12.7 mph - N/A   Mostly Cloudy
5:54 PM 60.1 °F 46.0 °F 60% 30.11 in 10.0 mi North 6.9 mph - N/A   Mostly Cloudy
6:54 PM 57.0 °F 48.9 °F 74% 30.13 in 10.0 mi North 6.9 mph - N/A   Clear
7:54 PM 55.9 °F 48.9 °F 77% 30.13 in 10.0 mi North 6.9 mph - N/A   Partly Cloudy
8:54 PM 54.0 °F 48.0 °F 80% 30.14 in 10.0 mi NE 6.9 mph - N/A   Partly Cloudy
9:54 PM 54.0 °F 46.9 °F 77% 30.14 in 10.0 mi NNE 8.1 mph - N/A   Clear
10:54 PM 55.0 °F 46.9 °F 74% 30.14 in 10.0 mi NNE 5.8 mph - N/A   Overcast
11:54 PM 54.0 °F 46.0 °F 75% 30.14 in 10.0 mi North 8.1 mph - N/A   Clear